Weather History for Rochelle, IL

Change the Weather History Date:

Friday, February 15, 2013

  Actual Average (KRFD) Record (KRFD)
Temperature  
Mean Temperature 24 °F 26 °F  
Max Temperature 32 °F 34 °F 67 °F (1921)
Min Temperature 17 °F 18 °F -13 °F (1920)
Degree Days  
Heating Degree Days 40 39  
Month to date heating degree days 616  
Since 1 July heating degree days 4525  
Cooling Degree Days 0 0  
Month to date cooling degree days 0  
Year to date cooling degree days 0  
Moisture  
Dew Point 17 °F    
Average Humidity 70    
Maximum Humidity 92    
Minimum Humidity 55    
Precipitation  
Precipitation 0.00 in 0.05 in 0.72 in (1935)
Month to date precipitation 0.67  
Year to date precipitation 2.04  
Snow  
Snow 0.00 in 0.30 in 6.80 in (1975)
Month to date snowfall 4.5  
Since 1 July snowfall 27.8  
Snow Depth -    
Sea Level Pressure  
Sea Level Pressure 30.15 in    
Wind  
Wind Speed 12 mph (NW)    
Max Wind Speed 18 mph    
Max Gust Speed 24 mph    
Visibility 10 miles    
Events Rain , Snow    
T = Trace of Precipitation, MM = Missing Value Source: NWS Daily Summary

Daily Weather History Graph

Daily Weather History Graph

Search for Another Location

Airport:

Trip Planner

Search our weather history database for the weather conditions in past years. The results will help you decide how hot, cold, wet, or windy it might be!

Date:

Astronomy

Feb. 15, 2013 Rise Set
Actual Time 6:51 AM CST 5:29 PM CST
Civil Twilight 6:23 AM CST 5:58 PM CST
Nautical Twilight 5:50 AM CST 6:31 PM CST
Astronomical Twilight 5:18 AM CST 7:03 PM CST
Moon 9:21 AM CST (2/15) 11:37 PM CST (2/15)
Length of Visible Light 11h 35m
Length of Day
10h 38m
Waxing Crescent, 30% of the Moon is Illuminated
Feb 15
Waxing Crescent
Feb 17
First Quarter
Feb 25
Full
Mar 4
Last Quarter
Mar 11
New

Hourly Weather History & Observations

Time (CST) Temp. Windchill Dew Point Humidity Pressure Visibility Wind Dir Wind Speed Gust Speed Precip Events Conditions
12:15 AM 32.0 °F 24.8 °F 27.1 °F 82% 29.99 in 10.0 mi NW 8.1 mph - N/A   Overcast
12:55 AM 31.6 °F 24.4 °F 27.1 °F 83% 30.00 in 10.0 mi NW 8.1 mph - N/A   Overcast
1:15 AM 31.6 °F 24.4 °F 27.1 °F 83% 30.00 in 10.0 mi NW 8.1 mph - N/A Rain Light Freezing Rain
1:35 AM 31.1 °F 23.7 °F 27.0 °F 85% 30.01 in 10.0 mi NW 8.1 mph - N/A   Overcast
1:55 AM 31.1 °F 22.4 °F 27.0 °F 85% 30.02 in 10.0 mi NW 10.4 mph - N/A Rain Light Freezing Rain
2:15 AM 30.7 °F 21.4 °F 26.2 °F 83% 30.03 in 10.0 mi NW 11.5 mph - N/A Rain Light Freezing Rain
2:35 AM 30.4 °F 21.5 °F 26.4 °F 85% 30.03 in 10.0 mi NW 10.4 mph - N/A Rain Light Freezing Rain
2:55 AM 30.0 °F 18.7 °F 25.0 °F 82% 30.04 in 10.0 mi NNW 16.1 mph 19.6 mph N/A Rain Light Freezing Rain
3:15 AM 29.3 °F 18.2 °F 25.0 °F 84% 30.04 in 4.0 mi NNW 15.0 mph - N/A Snow Light Snow
3:35 AM 28.4 °F 16.2 °F 26.2 °F 92% 30.05 in 3.0 mi North 17.3 mph - N/A Snow Light Snow
3:55 AM 27.5 °F 15.9 °F 23.2 °F 84% 30.06 in 10.0 mi North 15.0 mph - N/A Rain Light Freezing Rain
4:15 AM 27.3 °F 14.8 °F 23.0 °F 84% 30.07 in 10.0 mi North 17.3 mph - N/A Rain Light Freezing Rain
4:35 AM 26.6 °F 13.8 °F 21.2 °F 80% 30.08 in 10.0 mi NNW 17.3 mph - N/A Rain Light Freezing Rain
4:55 AM 25.3 °F 12.2 °F 19.0 °F 77% 30.09 in 10.0 mi NNW 17.3 mph 23.0 mph N/A   Overcast
5:15 AM 24.4 °F 12.4 °F 18.0 °F 76% 30.10 in 10.0 mi NNW 13.8 mph - N/A   Mostly Cloudy
5:35 AM 23.0 °F 11.1 °F 17.6 °F 80% 30.11 in 10.0 mi NNW 12.7 mph - N/A   Scattered Clouds
5:55 AM 22.1 °F 8.9 °F 16.0 °F 77% 30.12 in 10.0 mi NNW 15.0 mph 20.7 mph N/A   Clear
6:15 AM 21.6 °F 6.9 °F 15.8 °F 78% 30.13 in 10.0 mi NNW 18.4 mph 23.0 mph N/A   Clear
6:35 AM 20.8 °F 6.8 °F 13.6 °F 74% 30.14 in 10.0 mi NNW 16.1 mph 19.6 mph N/A   Clear
6:55 AM 20.3 °F 7.2 °F 13.3 °F 74% 30.15 in 10.0 mi NNW 13.8 mph - N/A   Clear
7:15 AM 20.5 °F 5.9 °F 12.6 °F 71% 30.16 in 10.0 mi NNW 17.3 mph - N/A   Clear
7:35 AM 20.7 °F 8.2 °F 13.3 °F 73% 30.16 in 10.0 mi NNW 12.7 mph - N/A   Clear
7:55 AM 20.8 °F 7.3 °F 13.1 °F 72% 30.17 in 10.0 mi NNW 15.0 mph - N/A   Clear
8:15 AM 21.0 °F 7.1 °F 12.9 °F 71% 30.18 in 10.0 mi NNW 16.1 mph - N/A   Clear
8:35 AM 21.9 °F 11.7 °F 13.6 °F 70% 30.19 in 10.0 mi NNW 9.2 mph - N/A   Clear
8:55 AM 22.1 °F 12.8 °F 13.6 °F 70% 30.19 in 10.0 mi NNW 8.1 mph - N/A   Clear
9:15 AM 22.5 °F 11.7 °F 14.0 °F 70% 30.19 in 10.0 mi NNW 10.4 mph - N/A   Clear
9:35 AM 23.9 °F 13.5 °F 14.4 °F 67% 30.19 in 10.0 mi NNW 10.4 mph - N/A   Clear
9:55 AM 24.8 °F 12.9 °F 14.0 °F 64% 30.19 in 10.0 mi NNW 13.8 mph - N/A   Clear
10:15 AM 24.8 °F 14.0 °F 14.2 °F 64% 30.19 in 10.0 mi NNW 11.5 mph 17.3 mph N/A   Clear
10:35 AM 25.7 °F 16.4 °F 14.9 °F 64% 30.20 in 10.0 mi NW 9.2 mph - N/A   Clear
10:55 AM 26.2 °F 16.4 °F 15.3 °F 63% 30.20 in 10.0 mi NW 10.4 mph - N/A   Clear
11:15 AM 27.1 °F 18.2 °F 15.6 °F 62% 30.20 in 10.0 mi NW 9.2 mph - N/A   Clear
11:35 AM 27.3 °F 17.7 °F 14.5 °F 59% 30.19 in 10.0 mi WNW 10.4 mph 17.3 mph N/A   Clear
12:15 PM 28.6 °F 18.2 °F 15.4 °F 58% 30.19 in 10.0 mi NW 12.7 mph - N/A   Clear
12:55 PM 28.9 °F 18.6 °F 16.2 °F 59% 30.18 in 10.0 mi NW 12.7 mph - N/A   Scattered Clouds
1:15 PM 29.1 °F 20.6 °F 15.6 °F 57% 30.17 in 10.0 mi WNW 9.2 mph 17.3 mph N/A   Clear
1:35 PM 29.3 °F 18.6 °F 16.2 °F 58% 30.17 in 10.0 mi WNW 13.8 mph - N/A   Clear
1:55 PM 29.1 °F 21.3 °F 15.1 °F 56% 30.16 in 10.0 mi WNW 8.1 mph - N/A   Scattered Clouds
2:15 PM 30.0 °F 21.1 °F 17.1 °F 59% 30.16 in 10.0 mi NW 10.4 mph 16.1 mph N/A   Scattered Clouds
2:35 PM 29.8 °F 19.8 °F 15.8 °F 56% 30.15 in 10.0 mi WNW 12.7 mph 18.4 mph N/A   Mostly Cloudy
2:55 PM 29.8 °F 19.8 °F 15.3 °F 55% 30.15 in 10.0 mi West 12.7 mph 16.1 mph N/A   Mostly Cloudy
3:15 PM 28.9 °F 19.8 °F 15.1 °F 56% 30.16 in 10.0 mi West 10.4 mph - N/A   Mostly Cloudy
3:35 PM 29.1 °F 18.4 °F 15.8 °F 58% 30.16 in 10.0 mi West 13.8 mph - N/A   Overcast
3:55 PM 28.8 °F 17.5 °F 15.4 °F 58% 30.16 in 10.0 mi West 15.0 mph - N/A   Overcast
4:15 PM 28.6 °F 19.9 °F 16.0 °F 59% 30.16 in 10.0 mi West 9.2 mph 17.3 mph N/A   Overcast
4:35 PM 28.6 °F 17.2 °F 17.2 °F 63% 30.16 in 10.0 mi West 15.0 mph 18.4 mph N/A   Overcast
4:55 PM 28.2 °F 15.9 °F 16.9 °F 63% 30.17 in 10.0 mi West 17.3 mph - N/A   Overcast
5:15 PM 27.9 °F 15.5 °F 16.5 °F 62% 30.17 in 10.0 mi WNW 17.3 mph - N/A   Overcast
5:35 PM 27.5 °F 15.9 °F 17.2 °F 65% 30.18 in 10.0 mi West 15.0 mph 19.6 mph N/A   Overcast
5:55 PM 27.1 °F 14.9 °F 17.2 °F 66% 30.18 in 10.0 mi West 16.1 mph - N/A   Overcast
6:15 PM 26.6 °F 13.8 °F 17.4 °F 68% 30.18 in 10.0 mi West 17.3 mph 21.9 mph N/A   Overcast
6:35 PM 26.2 °F 13.4 °F 18.1 °F 71% 30.19 in 10.0 mi West 17.3 mph - N/A   Overcast
6:55 PM 25.7 °F 13.1 °F 15.3 °F 65% 30.19 in 10.0 mi NW 16.1 mph - N/A   Overcast
7:15 PM 24.8 °F 12.9 °F 14.7 °F 66% 30.19 in 10.0 mi NW 13.8 mph 18.4 mph N/A   Overcast
7:35 PM 23.7 °F 11.5 °F 14.7 °F 69% 30.19 in 10.0 mi NW 13.8 mph 18.4 mph N/A   Scattered Clouds
7:55 PM 23.0 °F 11.7 °F 13.6 °F 67% 30.19 in 10.0 mi NW 11.5 mph 17.3 mph N/A   Clear
8:15 PM 22.8 °F 12.2 °F 13.6 °F 68% 30.19 in 10.0 mi NW 10.4 mph - N/A   Clear
8:35 PM 22.5 °F 10.5 °F 13.1 °F 67% 30.19 in 10.0 mi NW 12.7 mph - N/A   Clear
8:55 PM 21.9 °F 10.4 °F 11.8 °F 65% 30.19 in 10.0 mi NW 11.5 mph - N/A   Clear
9:15 PM 21.2 °F 9.5 °F 11.5 °F 66% 30.20 in 10.0 mi NW 11.5 mph - N/A   Clear
9:35 PM 21.0 °F 10.6 °F 12.0 °F 68% 30.19 in 10.0 mi NW 9.2 mph - N/A   Clear
9:55 PM 20.7 °F 8.2 °F 11.8 °F 69% 30.19 in 10.0 mi NW 12.7 mph - N/A   Clear
10:15 PM 20.1 °F 5.9 °F 10.4 °F 66% 30.19 in 10.0 mi NW 16.1 mph 24.2 mph N/A   Clear
10:35 PM 19.4 °F 6.6 °F 10.0 °F 67% 30.19 in 10.0 mi NW 12.7 mph - N/A   Scattered Clouds
10:55 PM 18.5 °F 5.5 °F 10.8 °F 72% 30.20 in 10.0 mi NW 12.7 mph 20.7 mph N/A   Scattered Clouds
11:15 PM 18.3 °F 4.6 °F 10.0 °F 70% 30.20 in 10.0 mi NW 13.8 mph - N/A   Clear
11:35 PM 17.6 °F 4.3 °F 10.0 °F 72% 30.19 in 10.0 mi NW 12.7 mph - N/A   Clear
11:55 PM 17.4 °F 2.9 °F 9.9 °F 72% 30.19 in 10.0 mi NW 15.0 mph - N/A   Clear